Regional Weather Roundup
Issued by NWS Charleston, WV

Home | Current Version | Previous Version | Graphics & Text | Print | Product List | Glossary On
Versions: 1 2 3 4 5 6 7 8 9 10 11 12 13 14 15 16 17 18 19 20 21 22 23 24 25 26 27 28 29 30 31 32 33 34 35 36 37 38 39 40 41 42 43 44 45 46 47 48 49 50
243
ASUS41 KRLX 091910
RWRRLX
CRWRWRRLX ALL
West Virginia Regional Weather Roundup
National Weather Service Charleston WV
Issued by National Weather Service Pittsburgh PA
200 PM EST FRI DEC 09 2016

Note: "fair" indicates few or no clouds below 12,000 feet with no
significant weather and/or obstructions to visibility.

WVZ003-092000-
Northern Panhandle of West Virginia

CITY           SKY/WX    TMP DP  RH WIND       PRES   REMARKS
WHEELING       CLOUDY    25  17  72 W13G21    30.36F WCI  14
$$

WVZ009-092000-
Northwest West Virginia

CITY           SKY/WX    TMP DP  RH WIND       PRES   REMARKS
PARKERSBURG    PTSUNNY   30  14  51 W14       30.47F WCI  19
$$

WVZ006-092000-
Western West Virginia

CITY           SKY/WX    TMP DP  RH WIND       PRES   REMARKS
HUNTINGTON     CLOUDY    26  13  57 W10       30.51S WCI  16
$$

WVZ015-092000-
West Central West Virginia

CITY           SKY/WX    TMP DP  RH WIND       PRES   REMARKS
CHARLESTON     FLURRIES  27  14  58 W10       30.47S WCI  17
$$

WVZ031-092000-
North Central West Virginia

CITY           SKY/WX    TMP DP  RH WIND       PRES   REMARKS
CLARKSBURG     CLOUDY    26  16  65 W13       30.38F WCI  15
MORGANTOWN     CLOUDY    27  16  63 VRB5      30.37F WCI  22
$$

WVZ035-042-092000-
South Central West Virginia

CITY           SKY/WX    TMP DP  RH WIND       PRES   REMARKS
BECKLEY        CLOUDY    21  11  65 NW9       30.35S WCI  11
BLUEFIELD      CLOUDY    19   9  65 VRB6      30.34R WCI  11
$$

WVZ045-092000-
Greenbrier Valley of West Virginia

CITY           SKY/WX    TMP DP  RH WIND       PRES   REMARKS
LEWISBURG      CLOUDY    23  10  56 N12       30.33S WCI  12
$$

WVZ047-092000-
Northern Mountains of West Virginia

CITY           SKY/WX    TMP DP  RH WIND       PRES   REMARKS
ELKINS         CLOUDY    22  13  68 W6        30.35S WCI  14
$$

WVZ052-092000-
Eastern Panhandle of West Virginia

CITY           SKY/WX    TMP DP  RH WIND       PRES   REMARKS
MARTINSBURG    PTSUNNY   34  15  46 W13G25    30.32S WCI  25
PETERSBURG     CLOUDY    32  16  52 W12G20    30.37S WCI  23
$$




USA.gov is the U.S. government's official web portal to all federal, state and local government web resources and services.